This demonstration page uses our WeatherBlox Daily Observations layout. Learn more.

Left ArrowRight Arrow

44.8408, -93.29828

Hourly Observations for March 30, 2023

Temp ( °F °C ) Dew Point ( °F °C ) Humidity (%) Winds ( mph kmh ) Pressure ( in mb ) Visibility ( mi km ) Precip ( " mm )
12:53 am 00:53 Clear 19 -7.2 5 -15 54 54 W 3 6 30.32 1027 10 16 0.00 0.00
1:53 am 01:53 Mostly Clear 18 -7.8 6 -14.4 59 59 SW 3 6 30.32 1027 10 16 0.00 0.00
2:53 am 02:53 Partly Cloudy 18 -7.8 7 -13.9 61 61 Calm 30.29 1026 10 16 0.00 0.00
3:53 am 03:53 Partly Cloudy 18 -7.8 9 -12.8 67 67 Calm 30.28 1025 10 16 0.00 0.00
4:53 am 04:53 Partly Cloudy 17 -8.3 9 -12.8 70 70 Calm 30.28 1025 10 16 0.00 0.00
5:53 am 05:53 Partly Cloudy 18 -7.8 9 -12.8 67 67 SE 6 9 30.27 1025 10 16 0.00 0.00
6:53 am 06:53 Mostly Cloudy 18 -7.8 10 -12.2 71 71 ESE 7 11 30.25 1025 10 16 0.00 0.00
7:53 am 07:53 Cloudy 20 -6.7 10 -12.2 65 65 SE 12 19 30.23 1024 10 16 0.00 0.00
8:53 am 08:53 Cloudy 23 -5 12 -11.1 62 62 SE 10 17 30.19 1022 10 16 0.00 0.00
9:53 am 09:53 Cloudy 27 -2.8 12 -11.1 53 53 ESE 8 13 30.16 1021 10 16 0.00 0.00
10:53 am 10:53 Mostly Cloudy 30 -1.1 12 -11.1 46 46 ESE 9 15 30.14 1021 10 16 0.00 0.00
11:53 am 11:53 Cloudy 33 0.6 13 -10.6 43 43 ESE 9 15 30.11 1020 10 16 0.00 0.00
12:53 pm 12:53 Cloudy 34 1.1 15 -9.4 45 45 ESE 12 19 30.08 1019 10 16 0.00 0.00
1:53 pm 13:53 Cloudy 35 1.7 17 -8.3 47 47 E 13 20 30.02 1017 9 14 0.00 0.00
2:10 pm 14:10 Cloudy with Light Snow 34 1.1 20 -6.7 56 56 E 15 24 30.01 1016 4 6 0.01 0.13
2:18 pm 14:18 Cloudy with Light Rain 34 1.1 21 -6.1 59 59 E 14 22 30.00 1016 6 10 0.01 0.13
2:53 pm 14:53 Cloudy 34 1.1 24 -4.4 67 67 E 15 24 29.95 1014 10 16 0.01 0.13
3:53 pm 15:53 Mostly Cloudy 36 2.2 23 -5 59 59 ESE 9 15 29.96 1014 10 16 0.00 0.00
4:53 pm 16:53 Cloudy 37 2.8 23 -5 56 56 E 13 20 29.90 1012 10 16 0.00 0.00
5:53 pm 17:53 Cloudy 37 2.8 26 -3.3 64 64 E 16 26 29.88 1012 10 16 0.00 0.00
6:53 pm 18:53 Cloudy 36 2.2 27 -2.8 69 69 ENE 10 17 29.88 1012 10 16 0.00 0.00
7:53 pm 19:53 Cloudy 36 2.2 28 -2.2 73 73 ENE 13 20 29.85 1011 10 16 0.00 0.00
8:09 pm 20:09 Cloudy 36 2.2 28 -2.2 73 73 ENE 13 20 29.86 1011 10 16 0.00 0.00
8:49 pm 20:49 Cloudy with Light Rain 36 2 28 -2 75 75 E 15 24 29.82 1010 8 13 0.01 0.13
8:53 pm 20:53 Cloudy with Light Rain 36 2.2 29 -1.7 75 75 ENE 13 20 29.81 1010 10 16 0.01 0.13
9:53 pm 21:53 Cloudy with Light Rain 35 1.7 29 -1.7 78 78 E 12 19 29.79 1009 9 14 0.01 0.13
10:53 pm 22:53 Cloudy with Light Rain 35 1.7 31 -0.6 85 85 ENE 10 17 29.76 1008 7 11 0.01 0.25
11:20 pm 23:20 Cloudy with Nearby Thunderstorms 35 1.7 31 -0.6 85 85 ENE 12 19 29.76 1008 6 10 0.02 0.51
11:35 pm 23:35 Cloudy with Light Rain 35 1.7 31 -0.6 85 85 ENE 13 20 29.75 1007 7 11 0.03 0.76
11:53 pm 23:53 Cloudy with Light Rain 35 1.7 31 -0.6 85 85 ENE 14 22 29.72 1006 7 11 0.03 0.76

Powered by Vaisala Xweather